Date,TemperatureHighF,TemperatureAvgF,TemperatureLowF,DewpointHighF,DewpointAvgF,DewpointLowF,HumidityHigh,HumidityAvg,HumidityLow,PressureMaxIn,PressureMinIn,WindSpeedMaxMPH,WindSpeedAvgMPH,GustSpeedMaxMPH,PrecipitationSumIn
2012-9-23,75,61,53,47,44,40,74,54,34,29.66,29.57,10,2,10,0.00
2012-9-24,74,56,42,53,43,38,88,64,37,29.73,29.60,13,1,13,0.00
2012-9-25,79,59,39,55,45,35,90,65,35,29.66,29.54,17,3,17,0.00
2012-9-26,89,70,54,66,57,49,87,67,42,29.63,29.56,15,3,15,0.00
2012-9-27,92,71,57,70,61,54,91,73,45,29.67,29.53,8,2,8,0.06
2012-9-28,78,67,61,70,62,57,92,85,69,29.57,29.46,8,1,8,0.41
2012-9-29,71,61,52,60,51,46,92,72,48,29.52,29.39,17,3,17,0.25
2012-9-30,72,58,45,57,49,42,91,74,47,29.43,29.30,20,2,20,0.00
2012-10-1,71,56,45,58,51,43,94,85,59,29.45,29.38,4,0,4,0.04
2012-10-2,67,62,58,65,60,56,96,94,91,29.44,29.35,11,1,11,0.52
2012-10-3,79,69,62,74,66,61,97,91,74,29.61,29.43,3,0,3,0.00
2012-10-4,76,67,54,70,62,51,95,84,56,29.67,29.59,4,0,4,0.01
2012-10-5,77,62,50,64,55,48,94,80,56,29.66,29.45,5,0,5,0.00
2012-10-6,74,60,48,64,52,40,94,75,53,29.56,29.34,20,3,20,0.00
2012-10-7,54,49,43,49,45,39,91,85,65,29.64,29.48,14,1,14,0.00
2012-10-8,50,44,42,46,41,39,94,88,72,29.74,29.63,14,3,14,0.00
2012-10-9,62,50,42,51,45,40,93,82,65,29.67,29.51,10,2,10,0.00
2012-10-10,68,56,44,54,47,38,94,74,51,29.57,29.37,13,2,13,0.00
2012-10-11,61,49,39,43,37,32,84,64,45,29.75,29.57,13,2,13,0.00
2012-10-12,65,48,36,50,39,33,92,73,42,29.86,29.61,22,4,22,0.00
2012-10-13,60,46,33,45,38,29,90,74,50,29.95,29.72,8,2,8,0.00
2012-10-14,74,57,42,57,49,38,88,75,56,29.72,29.41,11,2,11,0.00
2012-10-15,71,61,54,63,53,41,93,76,49,29.42,29.14,17,3,17,0.00
2012-10-16,63,53,41,48,42,37,87,68,46,29.40,29.31,18,2,18,0.00
2012-10-17,67,50,37,53,43,34,92,78,52,29.47,29.35,7,1,7,0.00
2012-10-18,69,57,44,57,51,41,91,81,65,29.37,29.24,9,2,9,0.00
2012-10-19,70,59,46,60,52,40,94,77,48,29.25,29.10,14,3,14,0.00
2012-10-20,65,51,40,51,41,36,92,70,44,29.44,29.17,12,2,12,0.00
2012-10-21,62,48,35,48,39,31,90,72,48,29.62,29.44,11,2,11,0.00
2012-10-22,67,50,33,50,41,29,90,73,47,29.70,29.57,6,1,6,0.00
2012-10-23,79,59,43,60,50,40,90,73,47,29.62,29.50,8,2,8,0.00
2012-10-24,79,61,47,62,51,44,90,72,42,29.63,29.54,8,1,8,0.00
2012-10-25,78,60,47,62,52,43,91,76,51,29.65,29.58,7,2,7,0.00
2012-10-26,74,62,53,63,56,49,93,81,66,29.64,29.51,5,1,5,0.00
2012-10-27,67,60,53,59,54,50,93,81,58,29.51,29.32,19,4,19,0.00
2012-10-28,58,55,49,54,50,47,94,81,71,29.33,29.12,28,11,28,0.00
2012-10-29,49,48,45,47,45,42,94,90,87,29.12,29.01,27,12,27,0.00
2012-11-3,47,41,37,35,32,29,80,70,59,29.56,29.50,13,2,13,0.00
2012-11-4,50,42,32,38,33,26,82,70,50,29.56,29.44,13,2,13,0.00
2012-11-5,48,36,25,33,28,21,89,73,50,29.61,29.49,21,3,21,0.00
2012-11-6,46,35,24,36,28,20,89,76,56,29.63,29.43,8,1,8,0.00
2012-11-7,43,37,33,31,29,28,83,73,62,29.43,29.34,19,5,19,0.00
2012-11-8,53,40,29,36,24,16,88,58,25,29.57,29.39,25,3,25,0.00
2012-11-9,56,40,26,41,31,21,86,72,54,29.68,29.56,6,1,6,0.00
2012-11-10,63,44,29,45,35,26,90,72,45,29.80,29.66,3,1,3,0.00
2012-11-11,71,51,34,54,38,30,89,66,32,29.88,29.78,13,2,13,0.00
2012-11-12,66,58,46,57,52,39,92,80,69,29.84,29.57,25,4,25,0.00
2012-11-13,50,41,32,48,34,25,93,76,50,29.93,29.65,22,5,22,0.00
2012-11-14,43,33,24,31,27,21,89,78,60,29.97,29.86,17,3,17,0.00
2012-11-15,45,35,27,36,30,24,91,82,68,29.87,29.72,10,1,10,0.00
2012-11-16,51,38,29,37,31,25,93,78,50,29.89,29.73,19,2,19,0.00
2012-11-17,51,36,24,35,28,21,90,73,40,30.02,29.89,26,4,26,0.00
2012-11-18,51,40,31,39,33,26,88,76,62,30.02,29.92,19,4,19,0.00
2012-12-14,34,30,28,26,24,22,83,76,65,29.70,29.67,2,1,2,0.00
2012-12-15,53,40,28,40,32,23,90,75,52,29.72,29.53,9,1,9,0.00
2012-12-16,51,45,41,48,42,38,94,91,87,29.54,29.27,7,2,7,0.00
2012-12-17,51,48,41,48,45,40,95,92,87,29.29,29.02,11,2,11,0.00
2012-12-18,54,45,36,48,38,30,94,79,56,29.28,29.01,21,4,21,0.00
2012-12-19,55,41,27,40,32,24,90,73,49,29.61,29.25,12,2,12,0.00
2012-12-20,47,39,31,45,35,28,94,83,71,29.62,28.84,12,3,12,0.00
2012-12-21,47,38,34,45,30,22,93,72,60,29.10,28.82,22,7,22,0.00
2012-12-22,43,35,25,27,23,18,76,61,47,29.49,29.09,21,5,21,0.00
2012-12-23,50,36,21,31,24,15,81,63,42,29.50,29.33,15,4,15,0.00
2012-12-24,40,33,25,36,29,20,94,86,70,29.49,29.32,8,1,8,0.00
2012-12-25,43,38,32,40,34,30,95,88,78,29.64,29.33,17,2,17,0.31
2012-12-26,37,33,30,33,31,28,95,92,81,29.63,28.98,26,5,26,0.47
2012-12-27,35,33,29,31,29,26,95,87,74,29.50,28.97,22,3,22,0.10
2012-12-28,37,32,28,33,29,25,92,87,79,29.58,29.43,15,2,15,0.14
2012-12-29,43,37,32,39,32,28,93,84,66,29.43,29.02,15,3,15,0.16
2012-12-30,38,33,21,29,23,16,82,69,49,29.77,29.32,16,4,18,0.02
2012-12-31,40,32,21,29,24,17,85,75,56,29.76,29.44,9,2,9,0.00
2013-1-1,45,38,30,38,32,24,82,76,70,29.45,29.34,8,1,8,0.00